SM2GSR-2 Weather Reports


Display with metric or nautical units.
time (UTC)temp
F
wind
direction
speed
MPH
gust
MPH
rain 1hr
in
rain 24hr
in
rain mn
in
humidity
%
barometer
mb
20260902130504 60 217 0.0 5.0 0.01 0.02 0.02 76 997.7
20260902130004 61 198 3.0 8.0 0.00 0.01 0.01 72 997.5
20260902125504 62 132 1.0 3.0 0.00 0.01 0.01 70 997.5
20260902125004 63 127 0.0 1.0 0.00 0.01 0.01 68 997.4
20260902124504 64 127 0.0 6.0 0.00 0.01 0.01 65 997.2
20260902124004 65 116 1.0 6.0 0.00 0.01 0.01 61 997.2
20260902123004 66 98 2.0 5.0 0.00 0.01 0.01 62 997.2
20260902122504 67 81 2.0 5.0 0.00 0.01 0.01 61 997.2
20260902121504 67 105 2.0 6.0 0.00 0.01 0.01 62 997.4
20260902121004 66 101 2.0 7.0 0.00 0.01 0.01 64 997.4
20260902120504 66 102 3.0 6.0 0.00 0.01 0.01 62 997.4
20260902120004 66 83 2.0 5.0 0.00 0.01 0.01 62 997.4
20260902115005 66 100 4.0 8.0 0.00 0.01 0.01 64 997.5
20260902114504 65 113 2.0 6.0 0.00 0.01 0.01 66 997.7
20260902114004 64 130 2.0 5.0 0.00 0.01 0.01 66 997.7
20260902113504 63 104 0.0 0.0 0.00 0.01 0.01 67 997.7
20260902113004 63 99 0.0 0.0 0.00 0.01 0.01 66 997.8
20260902112504 63 98 0.0 0.0 0.00 0.01 0.01 66 997.8
20260902112004 63 98 0.0 0.0 0.00 0.01 0.01 66 997.8
20260902111504 63 98 0.0 1.0 0.00 0.01 0.01 65 997.9
20260902111004 63 101 0.0 0.0 0.00 0.01 0.01 63 997.8
20260902110504 63 101 0.0 0.0 0.00 0.01 0.01 64 997.9
20260902110007 63 99 0.0 0.0 0.00 0.01 0.01 65 997.9
20260902105506 63 99 0.0 0.0 0.00 0.01 0.01 65 997.9
20260902105004 63 99 0.0 0.0 0.00 0.01 0.01 66 997.9
20260902104004 62 97 0.0 0.0 0.00 0.01 0.01 67 998.0
20260902103504 62 83 0.0 0.0 0.00 0.01 0.01 65 998.0
20260902103004 61 87 0.0 0.0 0.00 0.01 0.01 69 998.1
20260902102504 60 88 0.0 0.0 0.00 0.01 0.01 68 998.2
20260902102004 60 90 0.0 0.0 0.00 0.01 0.01 69 998.2
20260902101504 60 55 0.0 0.0 0.00 0.01 0.01 66 998.2
20260902101004 60 55 0.0 0.0 0.00 0.01 0.01 63 998.3
20260902100505 61 55 0.0 0.0 0.00 0.01 0.01 65 998.4
20260902100004 60 55 0.0 0.0 0.00 0.01 0.01 65 998.4
20260902095504 60 55 0.0 0.0 0.00 0.01 0.01 66 998.3
20260902094504 59 55 0.0 0.0 0.00 0.01 0.01 69 998.5
20260902093504 59 54 0.0 0.0 0.00 0.01 0.01 70 998.6
20260902093004 58 48 0.0 0.0 0.00 0.01 0.01 71 998.6
20260902092509 58 38 0.0 0.0 0.00 0.01 0.01 72 998.6
20260902092009 57 38 0.0 0.0 0.00 0.01 0.01 73 998.6
20260902091504 57 37 0.0 0.0 0.00 0.01 0.01 73 998.6
20260902090005 56 10 0.0 0.0 0.00 0.01 0.01 77 998.7
20260902085504 55 5 0.0 0.0 0.00 0.01 0.01 77 998.7
20260902085004 55 5 0.0 0.0 0.00 0.01 0.01 76 998.8
20260902084504 55 5 0.0 0.0 0.00 0.01 0.01 75 998.8
20260902084004 55 5 0.0 0.0 0.00 0.01 0.01 77 998.7
20260902083504 55 5 0.0 0.0 0.00 0.01 0.01 79 998.8
20260902083005 54 5 0.0 0.0 0.00 0.01 0.01 82 998.8
20260902082504 54 5 0.0 0.0 0.00 0.01 0.01 80 998.8
20260902082004 53 328 0.0 0.0 0.00 0.01 0.01 82 998.8
20260902081504 53 312 0.0 0.0 0.00 0.01 0.01 84 998.8
20260902081004 52 312 0.0 0.0 0.00 0.01 0.01 85 998.8
20260902080004 51 298 0.0 0.0 0.00 0.01 0.01 86 999.0
20260902075504 51 298 0.0 0.0 0.00 0.01 0.01 87 999.0
20260902074504 50 298 0.0 0.0 0.00 0.01 0.01 88 999.0
20260902073504 49 298 0.0 0.0 0.00 0.01 0.01 89 999.0
20260902073004 49 298 0.0 0.0 0.00 0.01 0.01 89 999.0
20260902072504 49 298 0.0 0.0 0.00 0.01 0.01 86 999.1
20260902072004 48 298 0.0 0.0 0.00 0.01 0.01 83 999.0
20260902071504 48 298 0.0 0.0 0.00 0.01 0.01 80 999.1
20260902071004 47 298 0.0 0.0 0.00 0.01 0.01 79 999.1
20260902070504 47 298 0.0 0.0 0.00 0.01 0.01 78 999.0
20260902070006 46 298 0.0 0.0 0.00 0.01 0.01 78 999.0
20260902065504 46 298 0.0 0.0 0.00 0.02 0.01 78 999.0
20260902064004 46 298 0.0 0.0 0.00 0.03 0.01 78 998.9
20260902063505 45 298 0.0 0.0 0.00 0.03 0.01 78 998.9
20260902063004 45 298 0.0 0.0 0.00 0.03 0.01 78 998.9
20260902062504 45 298 0.0 0.0 0.00 0.03 0.01 78 998.9
20260902062004 45 298 0.0 0.0 0.00 0.03 0.01 78 999.0
20260902061004 44 298 0.0 0.0 0.00 0.03 0.01 78 999.0
20260902060504 44 298 0.0 0.0 0.00 0.03 0.01 79 999.0
20260902060004 43 298 0.0 0.0 0.00 0.03 0.01 79 999.0
20260902055507 42 298 0.0 0.0 0.00 0.03 0.01 79 998.9
20260902055004 41 298 0.0 0.0 0.00 0.03 0.01 79 999.0
20260902054504 40 298 0.0 0.0 0.00 0.03 0.01 80 999.0
20260902054004 39 298 0.0 0.0 0.00 0.03 0.01 80 999.0
20260902053505 39 298 0.0 0.0 0.00 0.03 0.01 81 999.0
20260902053004 38 298 0.0 0.0 0.00 0.03 0.01 81 999.0
20260902052503 38 298 0.0 0.0 0.00 0.03 0.01 81 998.9
20260902052004 37 298 0.0 0.0 0.00 0.03 0.01 82 999.0
20260902051504 37 298 0.0 0.0 0.00 0.03 0.01 83 999.0
20260902050504 36 298 0.0 0.0 0.00 0.03 0.01 83 999.0
20260902050007 36 298 0.0 0.0 0.00 0.03 0.01 84 999.0
20260902045505 36 298 0.0 0.0 0.00 0.03 0.01 84 999.1
20260902045004 36 298 0.0 0.0 0.00 0.03 0.01 85 999.0
20260902044504 35 298 0.0 0.0 0.00 0.03 0.01 85 999.1
20260902044005 35 298 0.0 0.0 0.00 0.03 0.01 85 999.1
20260902043505 35 298 0.0 0.0 0.00 0.03 0.01 85 999.2
20260902042505 35 298 0.0 0.0 0.00 0.03 0.01 86 999.2
20260902042004 35 298 0.0 0.0 0.00 0.03 0.01 86 999.2
20260902041505 35 298 0.0 0.0 0.00 0.03 0.01 86 999.2
20260902041004 35 298 0.0 0.0 0.00 0.03 0.01 86 999.2
20260902040004 35 298 0.0 0.0 0.00 0.03 0.01 87 999.2
20260902035504 35 298 0.0 0.0 0.00 0.03 0.01 87 999.2
20260902035004 35 298 0.0 0.0 0.00 0.03 0.01 87 999.2
20260902034504 35 298 0.0 0.0 0.00 0.03 0.01 87 999.3
20260902034004 35 298 0.0 0.0 0.00 0.03 0.01 87 999.3
20260902033504 35 298 0.0 0.0 0.00 0.03 0.01 87 999.3
20260902033004 35 298 0.0 0.0 0.00 0.03 0.01 87 999.3
20260902032504 35 298 0.0 0.0 0.00 0.03 0.01 87 999.4
20260902032004 35 298 0.0 0.0 0.00 0.03 0.01 88 999.4
20260902031504 35 298 0.0 0.0 0.00 0.03 0.01 87 999.4
20260902031004 35 298 0.0 0.0 0.00 0.03 0.01 87 999.5
20260902030504 36 298 0.0 0.0 0.00 0.03 0.01 87 999.6
20260902030005 36 298 0.0 0.0 0.00 0.03 0.01 87 999.6
20260902025504 36 298 0.0 0.0 0.00 0.03 0.01 87 999.5
20260902024004 36 298 0.0 0.0 0.00 0.03 0.01 88 999.4
20260902023504 36 298 0.0 0.0 0.00 0.03 0.01 88 999.4
20260902023004 36 298 0.0 0.0 0.00 0.03 0.01 88 999.4
20260902022504 36 298 0.0 0.0 0.00 0.03 0.01 88 999.4
20260902022004 36 298 0.0 0.0 0.00 0.03 0.01 88 999.4
20260902021005 37 298 0.0 0.0 0.00 0.03 0.01 88 999.4
20260902020004 37 298 0.0 0.0 0.00 0.03 0.01 88 999.4
20260902015504 37 298 0.0 0.0 0.00 0.03 0.01 88 999.4
20260902014504 37 298 0.0 0.0 0.01 0.03 0.01 88 999.4
20260902014004 37 298 0.0 0.0 0.01 0.03 0.01 88 999.4
20260902013004 37 298 0.0 0.0 0.01 0.03 0.01 88 999.4
20260902012504 37 298 0.0 0.0 0.01 0.03 0.01 88 999.3
20260902012005 37 298 0.0 0.0 0.01 0.03 0.01 88 999.3
20260902011504 37 298 0.0 0.0 0.01 0.03 0.01 88 999.4
20260902011004 38 298 0.0 0.0 0.01 0.03 0.01 88 999.4
20260902010505 38 298 0.0 0.0 0.01 0.03 0.01 88 999.4
20260902010004 38 298 0.0 0.0 0.01 0.03 0.01 88 999.4
20260902005504 38 298 0.0 0.0 0.01 0.03 0.01 88 999.4
20260902005004 38 298 0.0 0.0 0.01 0.03 0.01 88 999.4
20260902004504 38 298 0.0 0.0 0.00 0.02 0.00 88 999.4
20260902004004 38 298 0.0 0.0 0.00 0.02 0.00 88 999.4
20260902002504 38 298 0.0 0.0 0.00 0.02 0.00 89 999.4
20260902002005 38 298 0.0 0.0 0.00 0.02 0.00 89 999.4
20260902001504 38 298 0.0 0.0 0.00 0.02 0.00 89 999.5
20260902001005 38 298 0.0 0.0 0.00 0.02 0.00 89 999.5
20260901235504 39 298 0.0 0.0 0.00 0.02 0.00 89 999.5
20260901235004 39 298 0.0 0.0 0.00 0.02 0.00 89 999.5
20260901234504 39 298 0.0 0.0 0.00 0.02 0.00 89 999.5
20260901234005 39 298 0.0 0.0 0.00 0.02 0.00 89 999.5
20260901233504 39 298 0.0 0.0 0.00 0.02 0.00 89 999.5
20260901233005 40 298 0.0 0.0 0.00 0.02 0.00 89 999.5
20260901232504 40 298 0.0 0.0 0.00 0.02 0.00 89 999.5
20260901231504 40 298 0.0 0.0 0.00 0.02 0.00 89 999.6
20260901231005 40 298 0.0 0.0 0.00 0.02 0.00 89 999.6
20260901230505 40 298 0.0 0.0 0.00 0.02 0.00 90 999.5
20260901225504 41 298 0.0 0.0 0.00 0.02 0.00 89 999.5
20260901225004 41 298 0.0 0.0 0.00 0.02 0.00 89 999.5
20260901224505 41 298 0.0 0.0 0.00 0.02 0.00 90 999.5
20260901224004 41 298 0.0 0.0 0.00 0.02 0.00 89 999.5
20260901223505 41 298 0.0 0.0 0.00 0.02 0.00 90 999.5
20260901223004 42 298 0.0 0.0 0.00 0.02 0.00 90 999.5
20260901222504 42 298 0.0 0.0 0.00 0.02 0.00 89 999.5
20260901222004 42 298 0.0 0.0 0.00 0.02 0.00 90 999.5
20260901221504 42 298 0.0 0.0 0.00 0.02 0.00 89 999.4
20260901221004 43 298 0.0 0.0 0.00 0.02 0.00 89 999.5
20260901220505 43 298 0.0 0.0 0.00 0.02 0.00 89 999.5
20260901215504 43 298 0.0 0.0 0.00 0.02 0.02 90 999.5
20260901214505 43 298 0.0 0.0 0.00 0.02 0.02 90 999.4
20260901214004 43 298 0.0 0.0 0.00 0.02 0.02 90 999.4
20260901213505 43 298 0.0 0.0 0.00 0.02 0.02 90 999.5
20260901213004 44 298 0.0 0.0 0.00 0.02 0.02 90 999.5
20260901212004 44 298 0.0 0.0 0.00 0.02 0.02 89 999.4
20260901211504 45 298 0.0 0.0 0.00 0.02 0.02 89 999.4
20260901211004 45 298 0.0 0.0 0.00 0.02 0.02 89 999.4
20260901210504 46 298 0.0 0.0 0.00 0.02 0.02 89 999.3
20260901205504 47 298 0.0 0.0 0.00 0.02 0.02 88 999.3
20260901205005 47 298 0.0 0.0 0.00 0.02 0.02 88 999.2
20260901204504 48 298 0.0 0.0 0.00 0.02 0.02 88 999.2
20260901204005 48 298 0.0 0.0 0.00 0.02 0.02 87 999.3
20260901203505 49 298 0.0 0.0 0.00 0.02 0.02 86 999.3
20260901203004 49 298 0.0 0.0 0.00 0.02 0.02 86 999.3
20260901202504 49 298 0.0 0.0 0.00 0.02 0.02 86 999.2
20260901201504 49 304 1.0 5.0 0.00 0.02 0.02 86 999.2
20260901201004 50 285 0.0 1.0 0.00 0.03 0.02 85 999.1
20260901200004 50 285 1.0 5.0 0.00 0.06 0.02 85 999.2
20260901195504 51 283 0.0 0.0 0.00 0.08 0.02 85 999.2
20260901195004 51 283 0.0 3.0 0.00 0.09 0.02 84 999.2
20260901194504 51 281 0.0 3.0 0.00 0.10 0.02 85 999.2
20260901193505 51 277 1.0 3.0 0.00 0.12 0.02 85 999.1
20260901193004 51 290 2.0 5.0 0.00 0.12 0.02 86 999.1
20260901192505 51 299 1.0 5.0 0.00 0.12 0.02 86 999.1
20260901192004 51 281 2.0 5.0 0.00 0.12 0.02 86 999.1
20260901191504 50 290 2.0 3.0 0.00 0.12 0.02 87 999.1
20260901190504 50 272 1.0 3.0 0.00 0.12 0.02 88 999.1
20260901190004 50 300 0.0 0.0 0.00 0.12 0.02 88 999.1
20260901185004 50 300 1.0 7.0 0.00 0.12 0.02 87 999.1
20260901184004 51 275 0.0 0.0 0.00 0.12 0.02 86 999.1
20260901183504 51 275 0.0 2.0 0.00 0.12 0.02 86 999.1
20260901183004 52 275 0.0 0.0 0.00 0.12 0.02 85 999.1
20260901182504 52 275 0.0 0.0 0.00 0.12 0.02 85 999.1
20260901182004 53 275 0.0 0.0 0.00 0.12 0.02 85 999.1
20260901181505 53 275 0.0 3.0 0.00 0.13 0.02 84 999.1
20260901181004 53 275 0.0 0.0 0.00 0.13 0.02 84 999.0
20260901180504 53 275 0.0 2.0 0.00 0.14 0.02 84 999.0
20260901180004 53 275 0.0 0.0 0.00 0.14 0.02 84 998.9
20260901174504 55 275 0.0 0.0 0.00 0.16 0.02 80 999.0
20260901173504 56 275 0.0 0.0 0.00 0.16 0.02 78 999.0
20260901173004 57 275 1.0 3.0 0.00 0.16 0.02 76 998.9
20260901172504 57 272 1.0 5.0 0.00 0.16 0.02 75 998.9
20260901172004 57 285 2.0 6.0 0.00 0.16 0.02 75 998.8
20260901171504 57 313 5.0 12.0 0.00 0.16 0.02 74 998.8
20260901170504 58 292 3.0 10.0 0.00 0.16 0.02 74 998.8
20260901170004 58 303 2.0 10.0 0.00 0.16 0.02 74 998.7
20260901165504 58 288 3.0 8.0 0.00 0.16 0.02 74 998.7
20260901165004 58 313 0.0 5.0 0.00 0.16 0.02 74 998.8
20260901164504 58 304 2.0 6.0 0.00 0.16 0.02 74 998.8
20260901164004 58 305 2.0 7.0 0.00 0.16 0.02 73 998.8
20260901163504 58 298 2.0 10.0 0.00 0.16 0.02 72 998.7
20260901163004 58 308 2.0 9.0 0.00 0.16 0.02 70 998.7
20260901162505 58 285 2.0 7.0 0.00 0.16 0.02 71 998.7
20260901162004 58 295 4.0 8.0 0.00 0.16 0.02 70 998.7
20260901161004 59 296 3.0 8.0 0.00 0.16 0.02 73 998.5
20260901160504 59 298 1.0 6.0 0.00 0.16 0.02 73 998.5
20260901160004 59 294 3.0 8.0 0.00 0.16 0.02 72 998.5
20260901155505 59 266 2.0 7.0 0.00 0.16 0.02 73 998.5
20260901155004 59 291 0.0 6.0 0.00 0.16 0.02 72 998.5
20260901154504 60 252 2.0 6.0 0.00 0.16 0.02 71 998.5
20260901154004 60 294 1.0 9.0 0.00 0.16 0.02 71 998.4
20260901153504 60 304 4.0 10.0 0.00 0.16 0.02 70 998.4
20260901153004 60 290 3.0 9.0 0.00 0.16 0.02 70 998.3
20260901152004 60 289 3.0 7.0 0.00 0.16 0.02 71 998.3
20260901151005 60 298 3.0 10.0 0.00 0.16 0.02 69 998.3
20260901150504 60 297 5.0 9.0 0.00 0.16 0.02 69 998.3
20260901150004 60 308 2.0 9.0 0.00 0.16 0.02 71 998.3
20260901145505 60 283 3.0 8.0 0.00 0.16 0.02 71 998.3
20260901145004 60 294 5.0 9.0 0.00 0.16 0.02 70 998.3
20260901144004 60 289 1.0 7.0 0.00 0.16 0.02 71 998.2
20260901143504 60 308 4.0 7.0 0.00 0.17 0.02 70 998.2
20260901143004 61 283 3.0 12.0 0.00 0.17 0.02 71 998.2
20260901142004 61 311 3.0 12.0 0.00 0.17 0.02 70 998.2
20260901141504 61 296 2.0 9.0 0.00 0.17 0.02 73 998.2
20260901141004 61 329 3.0 5.0 0.00 0.17 0.02 70 998.3
20260901140504 61 291 2.0 6.0 0.00 0.17 0.02 72 998.2
20260901135505 61 264 2.0 8.0 0.00 0.17 0.02 70 998.1
20260901135005 61 293 2.0 6.0 0.00 0.18 0.02 72 998.1
20260901134504 61 275 3.0 12.0 0.00 0.19 0.02 72 998.1
20260901133004 61 306 1.0 6.0 0.00 0.68 0.02 72 998.1
20260901132504 61 280 6.0 10.0 0.00 0.68 0.02 71 998.0
20260901132004 60 286 2.0 8.0 0.00 0.68 0.02 74 998.0
20260901131504 60 286 4.0 10.0 0.00 0.68 0.02 72 998.0